sat.trackr.live / text

‹ back to catalog

KUIPER-00122

NORAD 65951 · 2025-228E

PAYLOAD ACTIVE UNKNOWN

§ Identity

Operator
Country
US
Launch date
2025-10-14
Launch site
AFETR
Launch vehicle
Mass (kg)
RCS (m²)

External: N2YO · Heavens-Above · Gunter

§ Orbital elements

Epoch: 2026-05-25T00:50:32.138880Z

Period
97.30 min
Inclination
51.9006°
Eccentricity
0.0001124
Mean motion
14.79980706 rev/d
Perigee alt
628.6 km
Apogee alt
630.2 km
Semi-major
7,007.5 km
B*
4.6928e-4
RAAN
25.4647°
Arg perigee
97.4848°
Mean anomaly
262.6242°
Rev number
3,450

§ Raw data

KUIPER-001221 65951U 25228E   26145.03509420  .00003362  00000+0  46928-3 0  99912 65951  51.9006  25.4647 0001124  97.4848 262.6242 14.79980706 34502

JSON: /api/v1/satellites/65951 · /tle

For live sub-satellite position, see the globe view (requires WebGL).

§ Visibility from observer

Set your observer location to see the next 7 days of passes ≥ 10°. The values pass through the URL so the page stays shareable.

No JS? Fill the form by hand. The geolocation button needs JavaScript.